Hourly Data Report for June 19, 2012

HALIFAX STANFIELD INT'L A
NOVA SCOTIA

44°52'48.060" N
63°30'00.050" W
145.40 m
8202250
71395
YHZ

Download Data

Hourly Data (June 2012)
Hourly Data Report for June 19, 2012
TIME
LST
Temp Definition
°C
Dew Point Definition
°C
Rel Hum Definition
%
Precip. Amount Definition
mm

Wind Dir Definition
10's deg

Wind Spd Definition
km/h
Visibility Definition
km
Stn Press Definition
kPa
Hmdx Definition


Wind Chill Definition


Weather Definition


00:00 8.9 8.1 95   18 9 12.9 100.45     Cloudy
01:00 8.7 8.1 96   15 7 6.4 100.45     Fog
02:00 8.4 8.0 97   19 6 2.4 100.45     Fog
03:00 8.6 8.0 96   27 7 4.8 100.41     Fog
04:00 8.5 8.0 97   22 6 3.2 100.37     Fog
05:00 8.1 7.8 98   28 7 0.8 100.43     Fog
06:00 8.3 8.1 99   27 7 0.8 100.49     Fog
07:00 8.8 8.4 97   32 7 1.6 100.52     Fog
08:00 9.2 8.6 96   2 9 2.4 100.51     Fog
09:00 10.3 8.7 90   5 4 24.1 100.45     Cloudy
10:00 13.5 10.0 79   33 4 24.1 100.40     Mainly Clear
11:00 16.8 10.5 66   24 9 24.1 100.34     Mainly Clear
12:00 19.0 11.9 63   25 11 24.1 100.25     Mostly Cloudy
13:00 20.0 11.3 57   23 20 24.1 100.20     Mostly Cloudy
14:00 20.2 12.1 60   23 19 24.1 100.15     Mostly Cloudy
15:00 20.2 12.4 61   19 13 24.1 100.10     Mostly Cloudy
16:00 19.2 11.4 61   20 13 24.1 100.11     Mostly Cloudy
17:00 19.5 12.0 62   21 17 24.1 100.12     Cloudy
18:00 17.1 11.8 71   21 13 24.1 100.10     Cloudy
19:00 15.6 11.5 77   20 13 24.1 100.06     Cloudy
20:00 13.1 11.1 88   20 13 24.1 100.05     Mostly Cloudy
21:00 11.9 11.0 94   19 17 19.3 100.02     Cloudy
22:00 11.6 10.9 95   18 15 12.9 99.94     Cloudy
23:00 11.6 10.9 95   20 13 6.4 99.95     Fog

Notes on Data Quality.

Legend

  • E = Estimated
  • M = Missing
  • NA = Not Available*
  • [empty] = Indicates an unobserved value
Date modified: